DW6386 Weather Reports


time (UTC)temp
C
wind
direction
speed
KPH
gust
KPH
rain 1hr
cm
rain 24hr
cm
rain mn
cm
humidity
%
barometer
mb
20260507094505 11 146 0.0 0.0 0.03 2.64 0.18 97 1011.2
20260507093005 11 129 0.0 1.6 0.03 2.64 0.18 97 1010.6
20260507091505 11 117 0.0 0.0 0.03 2.64 0.18 97 1010.6
20260507090006 11 126 0.0 0.0 0.03 2.64 0.18 97 1010.4
20260507084501 11 126 0.0 0.0 0.03 2.62 0.15 97 1010.8
20260507083100 11 118 0.0 4.8 0.03 2.62 0.15 97 1010.6
20260507081558 12 280 0.0 3.2 0.03 2.62 0.15 97 1010.1
20260507080059 12 164 0.0 0.0 0.03 2.62 0.15 97 1010.1
20260507074557 12 148 0.0 9.7 0.00 2.59 0.13 97 1010.7
20260507073103 12 113 0.0 0.0 0.00 2.59 0.13 97 1010.6
20260507071552 12 181 0.0 3.2 0.00 2.59 0.13 97 1010.4
20260507070057 12 78 0.0 0.0 0.00 2.59 0.13 97 1010.6
20260507064553 12 103 0.0 0.0 0.00 2.59 0.13 97 1010.6
20260507063046 12 116 0.0 3.2 0.00 2.59 0.13 97 1010.9
20260507061545 12 67 0.0 0.0 0.00 2.59 0.13 97 1010.9
20260507060044 12 167 0.0 0.0 0.00 2.59 0.13 97 1010.8
20260507054541 12 181 0.0 0.0 0.05 2.59 0.13 97 1010.9
20260507053040 12 131 0.0 0.0 0.08 2.59 0.13 97 1011.3
20260507051538 13 249 0.0 6.4 0.13 2.59 0.13 97 1011.5
20260507050037 13 174 0.0 8.0 0.13 2.59 0.13 97 1011.7
20260507044537 13 137 0.0 3.2 0.08 2.54 0.08 98 1011.3
20260507043031 13 131 0.0 0.0 0.05 2.51 0.05 98 1011.2
20260507041530 13 131 0.0 0.0 0.00 2.46 0.00 98 1011.1
20260507040027 13 131 0.0 0.0 0.00 2.46 2.46 98 1011.1
20260507034530 13 131 0.0 0.0 0.00 2.46 2.46 98 1010.9
20260507033032 13 150 0.0 0.0 0.03 2.46 2.46 98 1010.8
20260507031532 14 172 0.0 0.0 0.05 2.46 2.46 98 1010.9
20260507030024 14 172 0.0 0.0 0.13 2.46 2.46 98 1011.3
20260507024524 14 173 0.0 0.0 0.13 2.46 2.46 98 1011.3
20260507023023 14 144 0.0 0.0 0.10 2.44 2.44 98 1011.9
20260507021522 14 145 0.0 0.0 0.05 2.39 2.39 97 1011.1
20260507020024 14 227 0.0 0.0 0.00 2.34 2.34 97 1011.3
20260507014522 14 131 0.0 0.0 0.00 2.34 2.34 97 1011.2
20260507013018 14 113 0.0 0.0 0.00 2.34 2.34 97 1010.7
20260507011528 15 158 0.0 1.6 0.00 2.34 2.34 97 1011.1
20260507010018 15 110 0.0 4.8 0.00 2.34 2.34 96 1011.1
20260507004512 15 134 0.0 6.4 0.00 2.34 2.34 96 1011.0
20260507003008 16 113 0.0 3.2 0.00 2.34 2.34 96 1010.6
20260507001509 17 161 0.0 3.2 0.03 2.34 2.34 96 1011.5
20260507000006 18 124 0.0 4.8 0.08 2.34 2.34 96 1011.1
20260506234506 18 100 0.0 0.0 0.18 2.34 2.34 97 1009.9
20260506233006 18 94 0.0 4.8 0.25 2.34 2.34 97 1009.9
20260506231505 18 63 0.0 4.8 0.25 2.31 2.31 97 1009.8
20260506230006 19 65 1.6 3.2 0.23 2.26 2.26 97 1010.2
20260506224503 19 52 0.0 3.2 0.13 2.16 2.16 97 1009.7
20260506223003 19 145 0.0 0.0 0.13 2.08 2.08 97 1009.3
20260506221503 19 67 1.6 4.8 0.10 2.06 2.06 97 1010.2
20260506220002 19 72 0.0 1.6 0.10 2.03 2.03 97 1009.6
20260506214501 19 71 0.0 6.4 0.10 2.03 2.03 97 1009.5
20260506213106 19 85 1.6 6.4 0.03 1.96 1.96 97 1009.4
20260506211600 19 50 0.0 3.2 0.08 1.96 1.96 97 1009.4
20260506210059 19 46 1.6 6.4 0.08 1.93 1.93 97 1009.6
20260506204600 19 51 3.2 9.7 0.10 1.93 1.93 97 1009.4
20260506203058 19 84 3.2 8.0 0.15 1.93 1.93 96 1008.8
20260506201558 19 312 1.6 9.7 0.10 1.88 1.88 96 1008.8
20260506200104 19 72 0.0 4.8 0.13 1.85 1.85 96 1009.6
20260506194557 19 73 0.0 8.0 0.10 1.83 1.83 96 1010.2
20260506193057 19 160 0.0 1.6 0.05 1.78 1.78 95 1010.0
20260506191556 19 55 1.6 9.7 0.05 1.78 1.78 95 1010.4
20260506190058 19 51 4.8 12.9 0.00 1.73 1.73 94 1010.3
20260506184555 20 4 1.6 11.3 0.00 1.73 1.73 93 1009.7
20260506183054 20 33 3.2 11.3 0.00 1.73 1.73 93 1010.7
20260506181557 20 65 3.2 11.3 0.00 1.73 1.73 91 1010.7
20260506180053 20 51 3.2 14.5 0.00 1.73 1.73 91 1010.7
20260506174555 20 37 4.8 12.9 0.00 1.73 1.73 91 1010.7
20260506173123 20 45 3.2 16.1 0.00 1.73 1.73 93 1010.8
20260506171554 20 52 6.4 16.1 0.00 1.73 1.73 93 1010.7
20260506170047 19 75 0.0 8.0 0.00 1.73 1.73 96 1010.3
20260506164554 18 74 3.2 12.9 0.00 1.73 1.73 96 1010.4
20260506163049 18 51 1.6 12.9 0.00 1.73 1.73 97 1010.4
20260506161549 18 51 3.2 11.3 0.00 1.73 1.73 97 1010.3
20260506160046 17 41 0.0 14.5 0.00 1.73 1.73 97 1010.3
20260506154549 17 58 0.0 6.4 0.00 1.73 1.73 97 1010.3
20260506153047 17 319 0.0 0.0 0.05 1.73 1.73 98 1010.2
20260506151542 17 72 0.0 12.9 0.13 1.73 1.73 97 1010.7
20260506150043 17 43 3.2 12.9 0.15 1.73 1.73 97 1010.8
20260506144543 17 71 0.0 6.4 0.23 1.73 1.73 98 1010.8
20260506143043 17 51 0.0 8.0 0.33 1.68 1.68 97 1011.0
20260506141540 17 39 3.2 9.7 0.38 1.60 1.60 97 1011.3
20260506140038 16 70 1.6 6.4 0.53 1.57 1.57 97 1011.2
20260506134536 16 16 4.8 9.7 0.64 1.50 1.50 97 1010.4
20260506133035 16 77 3.2 12.9 0.69 1.35 1.35 97 1010.6
20260506131545 16 72 4.8 14.5 0.69 1.19 1.19 96 1010.8
20260506130042 16 91 0.0 9.7 0.79 1.04 1.04 96 1010.3
20260506124532 16 28 1.6 8.0 0.69 0.84 0.84 96 1010.2
20260506123031 16 51 3.2 9.7 0.61 0.64 0.64 95 1010.4
20260506121529 16 25 0.0 11.3 0.48 0.48 0.48 94 1010.2
20260506120028 16 52 0.0 4.8 0.25 0.25 0.25 92 1010.1
20260506114523 16 79 0.0 3.2 0.15 0.15 0.15 90 1010.0
20260506113020 17 68 1.6 6.4 0.03 0.03 0.03 88 1009.6
20260506111521 17 99 0.0 0.0 0.00 0.00 0.00 85 1009.2
20260506110017 17 94 0.0 6.4 0.00 0.00 0.00 83 1009.0
20260506104512 18 52 0.0 16.1 0.00 0.00 0.00 82 1008.8
20260506103011 18 68 3.2 16.1 0.00 0.00 0.00 80 1008.7
20260506101518 18 26 3.2 9.7 0.00 0.00 0.00 77 1008.3
20260506100004 19 65 3.2 14.5 0.00 0.00 0.00 75 1008.4